« Back
NWS Peachtree City, Ga » Text Product » GA Regional Weather Roundup


Printer-friendly Version
Current Version              Previous Versions:   1  2  3  4  5  6  7  8  9  

Regional Weather Roundup

175
ASUS42 KFFC 010103
RWRGA
WEATHER ROUNDUP FOR GEORGIA
NATIONAL WEATHER SERVICE PEACHTREE CITY GA
900 PM EDT MON AUG 31 2015

NOTE: "FAIR" INDICATES FEW OR NO CLOUDS BELOW 12,000 FEET WITH NO
SIGNIFICANT WEATHER AND/OR OBSTRUCTIONS TO VISIBILITY.

* = USE WITH CAUTION. THE STATIONS MARKED WITH AN ASTERISK MAY NOT
REPORT WEATHER SUCH AS PRECIPITATION, FOG, OR THUNDER AND ARE NOT
QUALITY CONTROLLED BY NWS.

THE REMARK "TC" DENOTES TEMPERATURE READING IN DEGREES CELSIUS.

GAZ001>058-010200-
NORTH GEORGIA

CITY           SKY/WX    TMP DP  RH WIND       PRES   REMARKS
ATLANTA        PTCLDY    76  67  73 CALM      30.09R
ATHENS         MOCLDY    76  69  79 CALM      30.09R
CHAMBLEE       CLEAR     73  70  90 CALM      30.09R
PEACHTREE CITY CLEAR     72  71  97 CALM      30.10R FOG
ROME           CLEAR     74  69  85 CALM      30.07R
WEST ATLANTA   CLEAR     73  70  90 CALM      30.09R
GAINESVILLE    CLEAR     75  66  73 S3        30.13R
CARTERSVILLE   CLEAR     71  69  93 CALM      30.09R


CITY           SKY/WX    TMP DP  RH WIND       PRES   REMARKS
DALTON*        CLEAR     72  72 100 CALM      30.09R
LAWRENCEVILLE* CLEAR     73  63  68 CALM      30.10R
MARIETTA       PTCLDY    73  70  89 CALM      30.09S
KENNESAW*      PTCLDY    73  66  78 CALM      30.10S
BLAIRSVILLE*     N/A     72  50  45 CALM      30.14R
$$

GAZ059>098-102>109-010200-
CENTRAL GEORGIA

CITY           SKY/WX    TMP DP  RH WIND       PRES   REMARKS
AUGUSTA-BUSH   CLEAR     73  71  93 CALM      30.06R
AUGUSTA-DANIEL CLEAR     83  68  60 CALM      30.08R
COLUMBUS       CLEAR     81  67  62 E5        30.05R
MACON          CLEAR     75  71  87 E3        30.06S
ROBINS AFB     CLEAR     76  72  88 SE2       30.06R


CITY           SKY/WX    TMP DP  RH WIND       PRES   REMARKS
LAGRANGE*      CLEAR     77  77 100 CALM      30.08R
SYLVANIA*      CLEAR     75  74  99 CALM      30.08R
MILLEDGEVILLE* PTCLDY    73  70  88 CALM      30.07S
$$

GAZ099>101-110>166-010200-
SOUTH GEORGIA

CITY           SKY/WX    TMP DP  RH WIND       PRES   REMARKS
SAVANNAH       PTCLDY    78  73  84 CALM      30.07R
VALDOSTA       CLEAR     77  72  84 CALM      30.05R
ALMA           CLEAR     77  72  84 E3        30.06R
ST SIMONS      MOCLDY    81  76  84 SE5       30.06R
FT STEWART     CLEAR     77  73  88 CALM      30.04R
ALBANY         CLEAR     82  71  69 CALM      30.07R
HUNTER AFB     CLEAR     79  77  92 E2        30.04R
MOODY AFB      CLEAR     78  70  78 SE2       30.05R
BRUNSWICK      MOCLDY    79  75  89 CALM      30.07R


CITY           SKY/WX    TMP DP  RH WIND       PRES   REMARKS
BAINBRIDGE*    PTCLDY    81  72  74 CALM      30.04R
MOULTRIE*      CLEAR     79  72  78 CALM      30.06R
VIDALIA*       CLEAR     73  72  94 CALM      30.08R
WAYCROSS*      CLEAR     82  77  86 CALM      30.06R HX  90
DOUGLAS*       CLEAR     81  72  74 E6        30.07R
$$



USA.gov is the U.S. government's official web portal to all federal, state and local government web resources and services.